owner,sensor,date,latitude,longitude,vertical_datum,mass_concentration_of_oxygen_in_sea_water,qcFlag 
DISL,ioos:station:DISL:PPTA:1,2017-09-01T00:00:00Z,30.2791,-87.5561,1.378,6.29,1111122 
DISL,ioos:station:DISL:PPTA:1,2017-09-01T00:30:00Z,30.2791,-87.5561,1.362,5.93,1111122 
DISL,ioos:station:DISL:PPTA:1,2017-09-01T01:00:00Z,30.2791,-87.5561,1.35,6.29,1111122 
DISL,ioos:station:DISL:PPTA:1,2017-09-01T01:30:00Z,30.2791,-87.5561,1.355,6.4,1111122 
DISL,ioos:station:DISL:PPTA:1,2017-09-01T02:00:00Z,30.2791,-87.5561,1.392,6.42,1111122 
DISL,ioos:station:DISL:PPTA:1,2017-09-01T02:30:00Z,30.2791,-87.5561,1.377,5.65,1111122 
DISL,ioos:station:DISL:PPTA:1,2017-09-01T03:00:00Z,30.2791,-87.5561,1.403,5.5,1111122 
DISL,ioos:station:DISL:PPTA:1,2017-09-01T03:30:00Z,30.2791,-87.5561,1.405,4.59,1111122 
DISL,ioos:station:DISL:PPTA:1,2017-09-01T04:00:00Z,30.2791,-87.5561,1.426,5.51,1111122 
DISL,ioos:station:DISL:PPTA:1,2017-09-01T04:30:00Z,30.2791,-87.5561,1.389,5.29,1111122 
DISL,ioos:station:DISL:PPTA:1,2017-09-01T05:00:00Z,30.2791,-87.5561,1.384,5.89,1111122 
DISL,ioos:station:DISL:PPTA:1,2017-09-01T05:30:00Z,30.2791,-87.5561,1.407,5.71,1111122 
DISL,ioos:station:DISL:PPTA:1,2017-09-01T06:00:00Z,30.2791,-87.5561,1.427,5.31,1111122 
DISL,ioos:station:DISL:PPTA:1,2017-09-01T06:30:00Z,30.2791,-87.5561,1.445,5.19,1111122 
DISL,ioos:station:DISL:PPTA:1,2017-09-01T07:00:00Z,30.2791,-87.5561,1.472,4.9,1111122 
DISL,ioos:station:DISL:PPTA:1,2017-09-01T07:30:00Z,30.2791,-87.5561,1.486,5.56,1111122 
DISL,ioos:station:DISL:PPTA:1,2017-09-01T08:00:00Z,30.2791,-87.5561,1.496,5.22,1111122 
DISL,ioos:station:DISL:PPTA:1,2017-09-01T08:30:00Z,30.2791,-87.5561,1.5,5.17,1111122 
DISL,ioos:station:DISL:PPTA:1,2017-09-01T09:00:00Z,30.2791,-87.5561,1.509,5.26,1111122 
DISL,ioos:station:DISL:PPTA:1,2017-09-01T09:30:00Z,30.2791,-87.5561,1.501,4.31,1111122 
DISL,ioos:station:DISL:PPTA:1,2017-09-01T10:00:00Z,30.2791,-87.5561,1.509,4.19,1111122 
DISL,ioos:station:DISL:PPTA:1,2017-09-01T10:30:00Z,30.2791,-87.5561,1.525,4.93,1111122 
DISL,ioos:station:DISL:PPTA:1,2017-09-01T11:00:00Z,30.2791,-87.5561,1.514,5.36,1111122 
DISL,ioos:station:DISL:PPTA:1,2017-09-01T11:30:00Z,30.2791,-87.5561,1.513,5.34,1111122 
DISL,ioos:station:DISL:PPTA:1,2017-09-01T12:00:00Z,30.2791,-87.5561,1.513,5.25,1111122 
DISL,ioos:station:DISL:PPTA:1,2017-09-01T12:30:00Z,30.2791,-87.5561,1.524,5.21,1111122 
DISL,ioos:station:DISL:PPTA:1,2017-09-01T13:00:00Z,30.2791,-87.5561,1.547,5.76,1111122 
DISL,ioos:station:DISL:PPTA:1,2017-09-01T13:30:00Z,30.2791,-87.5561,1.552,5.3,1111122 
DISL,ioos:station:DISL:PPTA:1,2017-09-01T14:00:00Z,30.2791,-87.5561,1.524,5.28,1111122 
DISL,ioos:station:DISL:PPTA:1,2017-09-01T14:30:00Z,30.2791,-87.5561,1.513,5.34,1111122 
DISL,ioos:station:DISL:PPTA:1,2017-09-01T15:00:00Z,30.2791,-87.5561,1.509,5.32,1111122 
DISL,ioos:station:DISL:PPTA:1,2017-09-01T15:30:00Z,30.2791,-87.5561,1.474,5.31,1111122 
DISL,ioos:station:DISL:PPTA:1,2017-09-01T16:00:00Z,30.2791,-87.5561,1.478,5.49,1111122 
DISL,ioos:station:DISL:PPTA:1,2017-09-01T16:30:00Z,30.2791,-87.5561,1.451,4.67,1111122 
DISL,ioos:station:DISL:PPTA:1,2017-09-01T17:00:00Z,30.2791,-87.5561,1.43,5.83,1111122 
DISL,ioos:station:DISL:PPTA:1,2017-09-01T17:30:00Z,30.2791,-87.5561,1.423,5.98,1111122 
DISL,ioos:station:DISL:PPTA:1,2017-09-01T18:00:00Z,30.2791,-87.5561,1.406,6.49,1111122 
DISL,ioos:station:DISL:PPTA:1,2017-09-01T18:30:00Z,30.2791,-87.5561,1.381,6.22,1111122 
DISL,ioos:station:DISL:PPTA:1,2017-09-01T19:00:00Z,30.2791,-87.5561,1.355,6.84,1111122 
DISL,ioos:station:DISL:PPTA:1,2017-09-01T19:30:00Z,30.2791,-87.5561,1.352,6.56,1111122 
DISL,ioos:station:DISL:PPTA:1,2017-09-01T20:00:00Z,30.2791,-87.5561,1.352,6.28,1111122 
DISL,ioos:station:DISL:PPTA:1,2017-09-01T20:30:00Z,30.2791,-87.5561,1.342,6.8,1111122 
DISL,ioos:station:DISL:PPTA:1,2017-09-01T21:00:00Z,30.2791,-87.5561,1.354,7.34,1111122 
DISL,ioos:station:DISL:PPTA:1,2017-09-01T21:30:00Z,30.2791,-87.5561,1.33,7.57,1111122 
DISL,ioos:station:DISL:PPTA:1,2017-09-01T22:00:00Z,30.2791,-87.5561,1.311,7.58,1111122 
DISL,ioos:station:DISL:PPTA:1,2017-09-01T22:30:00Z,30.2791,-87.5561,1.288,7.8,1111122 
DISL,ioos:station:DISL:PPTA:1,2017-09-01T23:00:00Z,30.2791,-87.5561,1.306,6.42,1111122 
DISL,ioos:station:DISL:PPTA:1,2017-09-01T23:30:00Z,30.2791,-87.5561,1.302,6.0,1111122 
DISL,ioos:station:DISL:PPTA:1,2017-09-02T00:00:00Z,30.2791,-87.5561,1.309,6.95,1111122 
DISL,ioos:station:DISL:PPTA:1,2017-09-02T00:30:00Z,30.2791,-87.5561,1.319,7.14,1111122 
DISL,ioos:station:DISL:PPTA:1,2017-09-02T01:00:00Z,30.2791,-87.5561,1.31,6.42,1111122 
DISL,ioos:station:DISL:PPTA:1,2017-09-02T01:30:00Z,30.2791,-87.5561,1.324,6.78,1111122 
DISL,ioos:station:DISL:PPTA:1,2017-09-02T02:00:00Z,30.2791,-87.5561,1.345,6.39,1111122 
DISL,ioos:station:DISL:PPTA:1,2017-09-02T02:30:00Z,30.2791,-87.5561,1.34,6.4,1111122 
DISL,ioos:station:DISL:PPTA:1,2017-09-02T03:00:00Z,30.2791,-87.5561,1.326,6.05,1111122 
DISL,ioos:station:DISL:PPTA:1,2017-09-02T03:30:00Z,30.2791,-87.5561,1.328,5.65,1111122 
DISL,ioos:station:DISL:PPTA:1,2017-09-02T04:00:00Z,30.2791,-87.5561,1.326,6.44,1111122 
DISL,ioos:station:DISL:PPTA:1,2017-09-02T04:30:00Z,30.2791,-87.5561,1.313,5.69,1111122 
DISL,ioos:station:DISL:PPTA:1,2017-09-02T05:00:00Z,30.2791,-87.5561,1.363,5.75,1111122 
DISL,ioos:station:DISL:PPTA:1,2017-09-02T05:30:00Z,30.2791,-87.5561,1.38,6.16,1111122 
DISL,ioos:station:DISL:PPTA:1,2017-09-02T06:00:00Z,30.2791,-87.5561,1.366,4.9,1111122 
DISL,ioos:station:DISL:PPTA:1,2017-09-02T06:30:00Z,30.2791,-87.5561,1.352,4.11,1111122 
DISL,ioos:station:DISL:PPTA:1,2017-09-02T07:00:00Z,30.2791,-87.5561,1.363,4.77,1111122 
DISL,ioos:station:DISL:PPTA:1,2017-09-02T07:30:00Z,30.2791,-87.5561,1.36,3.85,1111122 
DISL,ioos:station:DISL:PPTA:1,2017-09-02T08:00:00Z,30.2791,-87.5561,1.361,3.99,1111122 
DISL,ioos:station:DISL:PPTA:1,2017-09-02T08:30:00Z,30.2791,-87.5561,1.39,3.58,1111122 
DISL,ioos:station:DISL:PPTA:1,2017-09-02T09:00:00Z,30.2791,-87.5561,1.395,3.82,1111122 
DISL,ioos:station:DISL:PPTA:1,2017-09-02T09:30:00Z,30.2791,-87.5561,1.412,3.73,1111122 
DISL,ioos:station:DISL:PPTA:1,2017-09-02T10:00:00Z,30.2791,-87.5561,1.405,3.43,1111122 
DISL,ioos:station:DISL:PPTA:1,2017-09-02T10:30:00Z,30.2791,-87.5561,1.427,3.83,1111122 
DISL,ioos:station:DISL:PPTA:1,2017-09-02T11:00:00Z,30.2791,-87.5561,1.449,3.81,1111122 
DISL,ioos:station:DISL:PPTA:1,2017-09-02T11:30:00Z,30.2791,-87.5561,1.468,3.79,1111122 
DISL,ioos:station:DISL:PPTA:1,2017-09-02T12:00:00Z,30.2791,-87.5561,1.464,3.9,1111122 
DISL,ioos:station:DISL:PPTA:1,2017-09-02T12:30:00Z,30.2791,-87.5561,1.503,4.14,1111122 
DISL,ioos:station:DISL:PPTA:1,2017-09-02T13:00:00Z,30.2791,-87.5561,1.463,3.2,1111122 
DISL,ioos:station:DISL:PPTA:1,2017-09-02T13:30:00Z,30.2791,-87.5561,1.464,2.67,1111122 
DISL,ioos:station:DISL:PPTA:1,2017-09-02T14:00:00Z,30.2791,-87.5561,1.448,3.67,1111122 
DISL,ioos:station:DISL:PPTA:1,2017-09-02T14:30:00Z,30.2791,-87.5561,1.449,3.78,1111122 
DISL,ioos:station:DISL:PPTA:1,2017-09-02T15:00:00Z,30.2791,-87.5561,1.455,3.83,1111122 
DISL,ioos:station:DISL:PPTA:1,2017-09-02T15:30:00Z,30.2791,-87.5561,1.447,4.37,1111122 
DISL,ioos:station:DISL:PPTA:1,2017-09-02T16:00:00Z,30.2791,-87.5561,1.433,4.49,1111122 
DISL,ioos:station:DISL:PPTA:1,2017-09-02T16:30:00Z,30.2791,-87.5561,1.404,4.77,1111122 
DISL,ioos:station:DISL:PPTA:1,2017-09-02T17:00:00Z,30.2791,-87.5561,1.404,5.14,1111122 
DISL,ioos:station:DISL:PPTA:1,2017-09-02T17:30:00Z,30.2791,-87.5561,1.365,4.7,1111122 
DISL,ioos:station:DISL:PPTA:1,2017-09-02T18:00:00Z,30.2791,-87.5561,1.364,5.68,1111122 
DISL,ioos:station:DISL:PPTA:1,2017-09-02T18:30:00Z,30.2791,-87.5561,1.364,5.62,1111122 
DISL,ioos:station:DISL:PPTA:1,2017-09-02T19:00:00Z,30.2791,-87.5561,1.354,5.87,1111122 
DISL,ioos:station:DISL:PPTA:1,2017-09-02T19:30:00Z,30.2791,-87.5561,1.346,6.4,1111122 
DISL,ioos:station:DISL:PPTA:1,2017-09-02T20:00:00Z,30.2791,-87.5561,1.31,5.66,1111122 
DISL,ioos:station:DISL:PPTA:1,2017-09-02T20:30:00Z,30.2791,-87.5561,1.298,5.1,1111122 
DISL,ioos:station:DISL:PPTA:1,2017-09-02T21:00:00Z,30.2791,-87.5561,1.294,5.36,1111122 
DISL,ioos:station:DISL:PPTA:1,2017-09-02T21:30:00Z,30.2791,-87.5561,1.28,5.61,1111122 
DISL,ioos:station:DISL:PPTA:1,2017-09-02T22:00:00Z,30.2791,-87.5561,1.271,6.3,1111122 
DISL,ioos:station:DISL:PPTA:1,2017-09-02T22:30:00Z,30.2791,-87.5561,1.267,6.05,1111122 
DISL,ioos:station:DISL:PPTA:1,2017-09-02T23:00:00Z,30.2791,-87.5561,1.277,5.86,1111122 
DISL,ioos:station:DISL:PPTA:1,2017-09-02T23:30:00Z,30.2791,-87.5561,1.281,6.19,1111122 
DISL,ioos:station:DISL:PPTA:1,2017-09-03T00:00:00Z,30.2791,-87.5561,1.271,5.37,1111122 
DISL,ioos:station:DISL:PPTA:1,2017-09-03T00:30:00Z,30.2791,-87.5561,1.281,4.73,1111122 
DISL,ioos:station:DISL:PPTA:1,2017-09-03T01:00:00Z,30.2791,-87.5561,1.281,5.44,1111122 
DISL,ioos:station:DISL:PPTA:1,2017-09-03T01:30:00Z,30.2791,-87.5561,1.268,5.13,1111122 
DISL,ioos:station:DISL:PPTA:1,2017-09-03T02:00:00Z,30.2791,-87.5561,1.28,5.47,1111122 
DISL,ioos:station:DISL:PPTA:1,2017-09-03T02:30:00Z,30.2791,-87.5561,1.283,4.7,1111122 
DISL,ioos:station:DISL:PPTA:1,2017-09-03T03:00:00Z,30.2791,-87.5561,1.287,3.91,1111122 
DISL,ioos:station:DISL:PPTA:1,2017-09-03T03:30:00Z,30.2791,-87.5561,1.293,4.92,1111122 
DISL,ioos:station:DISL:PPTA:1,2017-09-03T04:00:00Z,30.2791,-87.5561,1.304,5.22,1111122 
DISL,ioos:station:DISL:PPTA:1,2017-09-03T04:30:00Z,30.2791,-87.5561,1.29,4.55,1111122 
DISL,ioos:station:DISL:PPTA:1,2017-09-03T05:00:00Z,30.2791,-87.5561,1.306,4.13,1111122 
DISL,ioos:station:DISL:PPTA:1,2017-09-03T05:30:00Z,30.2791,-87.5561,1.298,3.75,1111122 
DISL,ioos:station:DISL:PPTA:1,2017-09-03T06:00:00Z,30.2791,-87.5561,1.288,3.81,1111122 
DISL,ioos:station:DISL:PPTA:1,2017-09-03T06:30:00Z,30.2791,-87.5561,1.292,3.86,1111122 
DISL,ioos:station:DISL:PPTA:1,2017-09-03T07:00:00Z,30.2791,-87.5561,1.304,4.55,1111122 
DISL,ioos:station:DISL:PPTA:1,2017-09-03T07:30:00Z,30.2791,-87.5561,1.312,4.83,1111122 
DISL,ioos:station:DISL:PPTA:1,2017-09-03T08:00:00Z,30.2791,-87.5561,1.345,4.82,1111122 
DISL,ioos:station:DISL:PPTA:1,2017-09-03T08:30:00Z,30.2791,-87.5561,1.389,4.52,1111122 
DISL,ioos:station:DISL:PPTA:1,2017-09-03T09:00:00Z,30.2791,-87.5561,1.395,4.18,1111122 
DISL,ioos:station:DISL:PPTA:1,2017-09-03T09:30:00Z,30.2791,-87.5561,1.405,3.83,1111122 
DISL,ioos:station:DISL:PPTA:1,2017-09-03T10:00:00Z,30.2791,-87.5561,1.422,5.33,1111122 
DISL,ioos:station:DISL:PPTA:1,2017-09-03T10:30:00Z,30.2791,-87.5561,1.436,5.07,1111122 
DISL,ioos:station:DISL:PPTA:1,2017-09-03T11:00:00Z,30.2791,-87.5561,1.453,4.64,1111122 
DISL,ioos:station:DISL:PPTA:1,2017-09-03T11:30:00Z,30.2791,-87.5561,1.461,4.71,1111122 
DISL,ioos:station:DISL:PPTA:1,2017-09-03T12:00:00Z,30.2791,-87.5561,1.452,4.02,1111122 
DISL,ioos:station:DISL:PPTA:1,2017-09-03T12:30:00Z,30.2791,-87.5561,1.468,3.85,1111122 
DISL,ioos:station:DISL:PPTA:1,2017-09-03T13:00:00Z,30.2791,-87.5561,1.48,4.59,1111122 
DISL,ioos:station:DISL:PPTA:1,2017-09-03T13:30:00Z,30.2791,-87.5561,1.481,4.81,1111122 
DISL,ioos:station:DISL:PPTA:1,2017-09-03T14:00:00Z,30.2791,-87.5561,1.489,4.67,1111122 
DISL,ioos:station:DISL:PPTA:1,2017-09-03T14:30:00Z,30.2791,-87.5561,1.483,4.86,1111122 
DISL,ioos:station:DISL:PPTA:1,2017-09-03T15:00:00Z,30.2791,-87.5561,1.479,5.42,1111122 
DISL,ioos:station:DISL:PPTA:1,2017-09-03T15:30:00Z,30.2791,-87.5561,1.463,4.24,1111122 
DISL,ioos:station:DISL:PPTA:1,2017-09-03T16:00:00Z,30.2791,-87.5561,1.452,5.14,1111122 
DISL,ioos:station:DISL:PPTA:1,2017-09-03T16:30:00Z,30.2791,-87.5561,1.432,5.5,1111122 
DISL,ioos:station:DISL:PPTA:1,2017-09-03T17:00:00Z,30.2791,-87.5561,1.434,6.35,1111122 
DISL,ioos:station:DISL:PPTA:1,2017-09-03T17:30:00Z,30.2791,-87.5561,1.406,6.64,1111122 
DISL,ioos:station:DISL:PPTA:1,2017-09-03T18:00:00Z,30.2791,-87.5561,1.406,6.38,1111122 
DISL,ioos:station:DISL:PPTA:1,2017-09-03T18:30:00Z,30.2791,-87.5561,1.396,6.7,1111122 
DISL,ioos:station:DISL:PPTA:1,2017-09-03T19:00:00Z,30.2791,-87.5561,1.364,5.92,1111122 
DISL,ioos:station:DISL:PPTA:1,2017-09-03T19:30:00Z,30.2791,-87.5561,1.358,6.4,1111122 
DISL,ioos:station:DISL:PPTA:1,2017-09-03T20:00:00Z,30.2791,-87.5561,1.329,6.48,1111122 
DISL,ioos:station:DISL:PPTA:1,2017-09-03T20:30:00Z,30.2791,-87.5561,1.322,7.15,1111122 
DISL,ioos:station:DISL:PPTA:1,2017-09-03T21:00:00Z,30.2791,-87.5561,1.312,6.41,1111122 
DISL,ioos:station:DISL:PPTA:1,2017-09-03T21:30:00Z,30.2791,-87.5561,1.293,6.09,1111122 
DISL,ioos:station:DISL:PPTA:1,2017-09-03T22:00:00Z,30.2791,-87.5561,1.299,6.03,1111122 
DISL,ioos:station:DISL:PPTA:1,2017-09-03T22:30:00Z,30.2791,-87.5561,1.299,5.95,1111122 
DISL,ioos:station:DISL:PPTA:1,2017-09-03T23:00:00Z,30.2791,-87.5561,1.293,6.76,1111122 
DISL,ioos:station:DISL:PPTA:1,2017-09-03T23:30:00Z,30.2791,-87.5561,1.267,6.86,1111122 
DISL,ioos:station:DISL:PPTA:1,2017-09-04T00:00:00Z,30.2791,-87.5561,1.27,6.81,1111122 
DISL,ioos:station:DISL:PPTA:1,2017-09-04T00:30:00Z,30.2791,-87.5561,1.282,6.31,1111122 
DISL,ioos:station:DISL:PPTA:1,2017-09-04T01:00:00Z,30.2791,-87.5561,1.276,6.42,1111122 
DISL,ioos:station:DISL:PPTA:1,2017-09-04T01:30:00Z,30.2791,-87.5561,1.283,5.99,1111122 
DISL,ioos:station:DISL:PPTA:1,2017-09-04T02:00:00Z,30.2791,-87.5561,1.288,5.95,1111122 
DISL,ioos:station:DISL:PPTA:1,2017-09-04T02:30:00Z,30.2791,-87.5561,1.293,5.69,1111122 
DISL,ioos:station:DISL:PPTA:1,2017-09-04T03:00:00Z,30.2791,-87.5561,1.294,5.65,1111122 
DISL,ioos:station:DISL:PPTA:1,2017-09-04T03:30:00Z,30.2791,-87.5561,1.293,5.31,1111122 
DISL,ioos:station:DISL:PPTA:1,2017-09-04T04:00:00Z,30.2791,-87.5561,1.285,5.31,1111122 
DISL,ioos:station:DISL:PPTA:1,2017-09-04T04:30:00Z,30.2791,-87.5561,1.288,3.98,1111122 
DISL,ioos:station:DISL:PPTA:1,2017-09-04T05:00:00Z,30.2791,-87.5561,1.287,3.93,1111122 
DISL,ioos:station:DISL:PPTA:1,2017-09-04T05:30:00Z,30.2791,-87.5561,1.285,4.16,1111122 
DISL,ioos:station:DISL:PPTA:1,2017-09-04T06:00:00Z,30.2791,-87.5561,1.287,3.9,1111122 
DISL,ioos:station:DISL:PPTA:1,2017-09-04T06:30:00Z,30.2791,-87.5561,1.29,3.69,1111122 
DISL,ioos:station:DISL:PPTA:1,2017-09-04T07:00:00Z,30.2791,-87.5561,1.307,5.71,1111122 
DISL,ioos:station:DISL:PPTA:1,2017-09-04T07:30:00Z,30.2791,-87.5561,1.316,5.08,1111122 
DISL,ioos:station:DISL:PPTA:1,2017-09-04T08:00:00Z,30.2791,-87.5561,1.337,4.99,1111122 
DISL,ioos:station:DISL:PPTA:1,2017-09-04T08:30:00Z,30.2791,-87.5561,1.35,5.22,1111122 
DISL,ioos:station:DISL:PPTA:1,2017-09-04T09:00:00Z,30.2791,-87.5561,1.37,5.81,1111122 
DISL,ioos:station:DISL:PPTA:1,2017-09-04T09:30:00Z,30.2791,-87.5561,1.381,5.85,1111122 
DISL,ioos:station:DISL:PPTA:1,2017-09-04T10:00:00Z,30.2791,-87.5561,1.401,5.94,1111122 
DISL,ioos:station:DISL:PPTA:1,2017-09-04T10:30:00Z,30.2791,-87.5561,1.422,5.14,1111122 
DISL,ioos:station:DISL:PPTA:1,2017-09-04T11:00:00Z,30.2791,-87.5561,1.439,4.77,1111122 
DISL,ioos:station:DISL:PPTA:1,2017-09-04T11:30:00Z,30.2791,-87.5561,1.464,5.83,1111122 
DISL,ioos:station:DISL:PPTA:1,2017-09-04T12:00:00Z,30.2791,-87.5561,1.484,5.88,1111122 
DISL,ioos:station:DISL:PPTA:1,2017-09-04T12:30:00Z,30.2791,-87.5561,1.483,5.5,1111122 
DISL,ioos:station:DISL:PPTA:1,2017-09-04T13:00:00Z,30.2791,-87.5561,1.489,5.48,1111122 
DISL,ioos:station:DISL:PPTA:1,2017-09-04T13:30:00Z,30.2791,-87.5561,1.502,6.54,1111122 
DISL,ioos:station:DISL:PPTA:1,2017-09-04T14:00:00Z,30.2791,-87.5561,1.503,5.61,1111122 
DISL,ioos:station:DISL:PPTA:1,2017-09-04T14:30:00Z,30.2791,-87.5561,1.515,5.92,1111122 
DISL,ioos:station:DISL:PPTA:1,2017-09-04T15:00:00Z,30.2791,-87.5561,1.524,5.75,1111122 
DISL,ioos:station:DISL:PPTA:1,2017-09-04T15:30:00Z,30.2791,-87.5561,1.521,5.88,1111122 
DISL,ioos:station:DISL:PPTA:1,2017-09-04T16:00:00Z,30.2791,-87.5561,1.519,6.69,1111122 
DISL,ioos:station:DISL:PPTA:1,2017-09-04T16:30:00Z,30.2791,-87.5561,1.499,6.78,1111122 
DISL,ioos:station:DISL:PPTA:1,2017-09-04T17:00:00Z,30.2791,-87.5561,1.482,5.49,1111122 
DISL,ioos:station:DISL:PPTA:1,2017-09-04T17:30:00Z,30.2791,-87.5561,1.463,7.01,1111122 
DISL,ioos:station:DISL:PPTA:1,2017-09-04T18:00:00Z,30.2791,-87.5561,1.458,7.29,1111122 
DISL,ioos:station:DISL:PPTA:1,2017-09-04T18:30:00Z,30.2791,-87.5561,1.42,7.37,1111122 
DISL,ioos:station:DISL:PPTA:1,2017-09-04T19:00:00Z,30.2791,-87.5561,1.412,7.31,1111122 
DISL,ioos:station:DISL:PPTA:1,2017-09-04T19:30:00Z,30.2791,-87.5561,1.412,7.42,1111122 
DISL,ioos:station:DISL:PPTA:1,2017-09-04T20:00:00Z,30.2791,-87.5561,1.398,7.35,1111122 
DISL,ioos:station:DISL:PPTA:1,2017-09-04T20:30:00Z,30.2791,-87.5561,1.375,7.24,1111122 
DISL,ioos:station:DISL:PPTA:1,2017-09-04T21:00:00Z,30.2791,-87.5561,1.358,7.43,1111122 
DISL,ioos:station:DISL:PPTA:1,2017-09-04T21:30:00Z,30.2791,-87.5561,1.349,7.45,1111122 
DISL,ioos:station:DISL:PPTA:1,2017-09-04T22:00:00Z,30.2791,-87.5561,1.329,6.84,1111122 
DISL,ioos:station:DISL:PPTA:1,2017-09-04T22:30:00Z,30.2791,-87.5561,1.338,6.81,1111122 
DISL,ioos:station:DISL:PPTA:1,2017-09-04T23:00:00Z,30.2791,-87.5561,1.328,6.62,1111122 
DISL,ioos:station:DISL:PPTA:1,2017-09-04T23:30:00Z,30.2791,-87.5561,1.329,7.2,1111122 
DISL,ioos:station:DISL:PPTA:1,2017-09-05T00:00:00Z,30.2791,-87.5561,1.318,7.32,1111122 
DISL,ioos:station:DISL:PPTA:1,2017-09-05T00:30:00Z,30.2791,-87.5561,1.315,6.93,1111122 
DISL,ioos:station:DISL:PPTA:1,2017-09-05T01:00:00Z,30.2791,-87.5561,1.309,6.64,1111122 
DISL,ioos:station:DISL:PPTA:1,2017-09-05T01:30:00Z,30.2791,-87.5561,1.316,6.56,1111122 
DISL,ioos:station:DISL:PPTA:1,2017-09-05T02:00:00Z,30.2791,-87.5561,1.311,5.7,1111122 
DISL,ioos:station:DISL:PPTA:1,2017-09-05T02:30:00Z,30.2791,-87.5561,1.318,5.65,1111122 
DISL,ioos:station:DISL:PPTA:1,2017-09-05T03:00:00Z,30.2791,-87.5561,1.31,6.19,1111122 
DISL,ioos:station:DISL:PPTA:1,2017-09-05T03:30:00Z,30.2791,-87.5561,1.301,5.49,1111122 
DISL,ioos:station:DISL:PPTA:1,2017-09-05T04:00:00Z,30.2791,-87.5561,1.309,5.26,1111122 
DISL,ioos:station:DISL:PPTA:1,2017-09-05T04:30:00Z,30.2791,-87.5561,1.311,4.77,1111122 
DISL,ioos:station:DISL:PPTA:1,2017-09-05T05:00:00Z,30.2791,-87.5561,1.307,4.33,1111122 
DISL,ioos:station:DISL:PPTA:1,2017-09-05T05:30:00Z,30.2791,-87.5561,1.297,4.88,1111122 
DISL,ioos:station:DISL:PPTA:1,2017-09-05T06:00:00Z,30.2791,-87.5561,1.304,4.98,1111122 
DISL,ioos:station:DISL:PPTA:1,2017-09-05T06:30:00Z,30.2791,-87.5561,1.3,4.77,1111122 
DISL,ioos:station:DISL:PPTA:1,2017-09-05T07:00:00Z,30.2791,-87.5561,1.304,4.95,1111122 
DISL,ioos:station:DISL:PPTA:1,2017-09-05T07:30:00Z,30.2791,-87.5561,1.312,5.34,1111122 
DISL,ioos:station:DISL:PPTA:1,2017-09-05T08:00:00Z,30.2791,-87.5561,1.306,5.19,1111122 
DISL,ioos:station:DISL:PPTA:1,2017-09-05T08:30:00Z,30.2791,-87.5561,1.341,6.2,1111122 
DISL,ioos:station:DISL:PPTA:1,2017-09-05T09:00:00Z,30.2791,-87.5561,1.338,6.39,1111122 
DISL,ioos:station:DISL:PPTA:1,2017-09-05T09:30:00Z,30.2791,-87.5561,1.362,6.06,1111122 
DISL,ioos:station:DISL:PPTA:1,2017-09-05T10:00:00Z,30.2791,-87.5561,1.388,5.98,1111122 
DISL,ioos:station:DISL:PPTA:1,2017-09-05T10:30:00Z,30.2791,-87.5561,1.391,5.56,1111122 
DISL,ioos:station:DISL:PPTA:1,2017-09-05T11:00:00Z,30.2791,-87.5561,1.421,4.6,1111122 
DISL,ioos:station:DISL:PPTA:1,2017-09-05T11:30:00Z,30.2791,-87.5561,1.438,5.92,1111122 
DISL,ioos:station:DISL:PPTA:1,2017-09-05T12:00:00Z,30.2791,-87.5561,1.446,6.21,1111122 
DISL,ioos:station:DISL:PPTA:1,2017-09-05T12:30:00Z,30.2791,-87.5561,1.465,5.63,1111122 
DISL,ioos:station:DISL:PPTA:1,2017-09-05T13:00:00Z,30.2791,-87.5561,1.474,5.5,1111122 
DISL,ioos:station:DISL:PPTA:1,2017-09-05T13:30:00Z,30.2791,-87.5561,1.483,5.69,1111122 
DISL,ioos:station:DISL:PPTA:1,2017-09-05T14:00:00Z,30.2791,-87.5561,1.489,5.41,1111122 
DISL,ioos:station:DISL:PPTA:1,2017-09-05T14:30:00Z,30.2791,-87.5561,1.497,5.49,1111122 
DISL,ioos:station:DISL:PPTA:1,2017-09-05T15:00:00Z,30.2791,-87.5561,1.516,5.75,1111122 
DISL,ioos:station:DISL:PPTA:1,2017-09-05T15:30:00Z,30.2791,-87.5561,1.527,5.52,1111122 
DISL,ioos:station:DISL:PPTA:1,2017-09-05T16:00:00Z,30.2791,-87.5561,1.519,5.64,1111122 
DISL,ioos:station:DISL:PPTA:1,2017-09-05T16:30:00Z,30.2791,-87.5561,1.537,4.88,1111122 
DISL,ioos:station:DISL:PPTA:1,2017-09-05T17:00:00Z,30.2791,-87.5561,1.524,5.39,1111122 
DISL,ioos:station:DISL:PPTA:1,2017-09-05T17:30:00Z,30.2791,-87.5561,1.491,6.78,1111122 
DISL,ioos:station:DISL:PPTA:1,2017-09-05T18:00:00Z,30.2791,-87.5561,1.476,7.03,1111122 
DISL,ioos:station:DISL:PPTA:1,2017-09-05T18:30:00Z,30.2791,-87.5561,1.467,7.33,1111122 
DISL,ioos:station:DISL:PPTA:1,2017-09-05T19:00:00Z,30.2791,-87.5561,1.458,6.64,1111122 
DISL,ioos:station:DISL:PPTA:1,2017-09-05T19:30:00Z,30.2791,-87.5561,1.446,6.68,1111122 
DISL,ioos:station:DISL:PPTA:1,2017-09-05T20:00:00Z,30.2791,-87.5561,1.437,7.84,1111122 
DISL,ioos:station:DISL:PPTA:1,2017-09-05T20:30:00Z,30.2791,-87.5561,1.433,7.47,1111122 
DISL,ioos:station:DISL:PPTA:1,2017-09-05T21:00:00Z,30.2791,-87.5561,1.402,7.22,1111122 
DISL,ioos:station:DISL:PPTA:1,2017-09-05T21:30:00Z,30.2791,-87.5561,1.402,7.42,1111122 
DISL,ioos:station:DISL:PPTA:1,2017-09-05T22:00:00Z,30.2791,-87.5561,1.4,6.31,1111122 
DISL,ioos:station:DISL:PPTA:1,2017-09-05T22:30:00Z,30.2791,-87.5561,1.369,5.94,1111122 
DISL,ioos:station:DISL:PPTA:1,2017-09-05T23:00:00Z,30.2791,-87.5561,1.372,6.7,1111122 
DISL,ioos:station:DISL:PPTA:1,2017-09-05T23:30:00Z,30.2791,-87.5561,1.378,6.15,1111122 
DISL,ioos:station:DISL:PPTA:1,2017-09-06T00:00:00Z,30.2791,-87.5561,1.374,6.02,1111122 
DISL,ioos:station:DISL:PPTA:1,2017-09-06T00:30:00Z,30.2791,-87.5561,1.356,5.8,1111122 
DISL,ioos:station:DISL:PPTA:1,2017-09-06T01:00:00Z,30.2791,-87.5561,1.366,5.57,1111122 
DISL,ioos:station:DISL:PPTA:1,2017-09-06T01:30:00Z,30.2791,-87.5561,1.364,5.65,1111122 
DISL,ioos:station:DISL:PPTA:1,2017-09-06T02:00:00Z,30.2791,-87.5561,1.352,5.87,1111122 
DISL,ioos:station:DISL:PPTA:1,2017-09-06T02:30:00Z,30.2791,-87.5561,1.354,5.4,1111122 
DISL,ioos:station:DISL:PPTA:1,2017-09-06T03:00:00Z,30.2791,-87.5561,1.348,6.07,1111122 
DISL,ioos:station:DISL:PPTA:1,2017-09-06T03:30:00Z,30.2791,-87.5561,1.336,4.67,1111122 
DISL,ioos:station:DISL:PPTA:1,2017-09-06T04:00:00Z,30.2791,-87.5561,1.334,5.31,1111122 
DISL,ioos:station:DISL:PPTA:1,2017-09-06T04:30:00Z,30.2791,-87.5561,1.343,5.97,1111122 
DISL,ioos:station:DISL:PPTA:1,2017-09-06T05:00:00Z,30.2791,-87.5561,1.338,5.84,1111122 
DISL,ioos:station:DISL:PPTA:1,2017-09-06T05:30:00Z,30.2791,-87.5561,1.344,5.2,1111122 
DISL,ioos:station:DISL:PPTA:1,2017-09-06T06:00:00Z,30.2791,-87.5561,1.331,5.25,1111122 
DISL,ioos:station:DISL:PPTA:1,2017-09-06T06:30:00Z,30.2791,-87.5561,1.343,4.44,1111122 
DISL,ioos:station:DISL:PPTA:1,2017-09-06T07:00:00Z,30.2791,-87.5561,1.341,4.95,1111122 
DISL,ioos:station:DISL:PPTA:1,2017-09-06T07:30:00Z,30.2791,-87.5561,1.365,5.09,1111122 
DISL,ioos:station:DISL:PPTA:1,2017-09-06T08:00:00Z,30.2791,-87.5561,1.372,5.0,1111122 
DISL,ioos:station:DISL:PPTA:1,2017-09-06T08:30:00Z,30.2791,-87.5561,1.359,4.58,1111122 
DISL,ioos:station:DISL:PPTA:1,2017-09-06T09:00:00Z,30.2791,-87.5561,1.346,3.66,1111122 
DISL,ioos:station:DISL:PPTA:1,2017-09-06T09:30:00Z,30.2791,-87.5561,1.383,3.13,1111122 
DISL,ioos:station:DISL:PPTA:1,2017-09-06T10:00:00Z,30.2791,-87.5561,1.358,5.36,1111122 
DISL,ioos:station:DISL:PPTA:1,2017-09-06T10:30:00Z,30.2791,-87.5561,1.4,5.26,1111122 
DISL,ioos:station:DISL:PPTA:1,2017-09-06T11:00:00Z,30.2791,-87.5561,1.425,5.13,1111122 
DISL,ioos:station:DISL:PPTA:1,2017-09-06T11:30:00Z,30.2791,-87.5561,1.419,5.36,1111122 
DISL,ioos:station:DISL:PPTA:1,2017-09-06T12:00:00Z,30.2791,-87.5561,1.441,4.95,1111122 
DISL,ioos:station:DISL:PPTA:1,2017-09-06T12:30:00Z,30.2791,-87.5561,1.458,5.22,1111122 
DISL,ioos:station:DISL:PPTA:1,2017-09-06T13:00:00Z,30.2791,-87.5561,1.48,6.27,1111122 
DISL,ioos:station:DISL:PPTA:1,2017-09-06T13:30:00Z,30.2791,-87.5561,1.498,6.1,1111122 
DISL,ioos:station:DISL:PPTA:1,2017-09-06T14:00:00Z,30.2791,-87.5561,1.476,5.61,1111122 
DISL,ioos:station:DISL:PPTA:1,2017-09-06T14:30:00Z,30.2791,-87.5561,1.523,5.12,1111122 
DISL,ioos:station:DISL:PPTA:1,2017-09-06T15:00:00Z,30.2791,-87.5561,1.53,4.55,1111122 
DISL,ioos:station:DISL:PPTA:1,2017-09-06T15:30:00Z,30.2791,-87.5561,1.525,5.3,1111122 